This is the latest recevied weather packets stored in our database for station/object N2PPN. If no packets are shown the sender has not sent any weather packets the latest 10 day(s).
| Time | Temp. | Humidity | Pressure | Rain* | Wind** | Luminosity | Snow |
|---|---|---|---|---|---|---|---|
| 1778068781 | 15° C | 90% | 1014 hPa | 0 mm | - | 107 W/m² | - |
| 1778068480 | 15° C | 89% | 1014 hPa | 0 mm | - | 174 W/m² | - |
| 1778068178 | 15° C | 90% | 1014 hPa | 0 mm | - | 120 W/m² | - |
| 1778067875 | 14.44° C | 90% | 1014 hPa | 0 mm | - | 109 W/m² | - |
| 1778067573 | 14.44° C | 91% | 1014 hPa | 0 mm | - | 90 W/m² | - |
| 1778067271 | 14.44° C | 91% | 1013.9 hPa | 0 mm | - | 88 W/m² | - |
| 1778066967 | 14.44° C | 91% | 1013.9 hPa | 0 mm | - | 82 W/m² | - |
| 1778066665 | 14.44° C | 91% | 1013.7 hPa | 0 mm | - | 80 W/m² | - |
| 1778066362 | 14.44° C | 92% | 1013.7 hPa | 0 mm | - | 109 W/m² | - |
| 1778066060 | 13.89° C | 93% | 1013.8 hPa | 0 mm | - | 72 W/m² | - |
| 1778065757 | 13.89° C | 93% | 1014 hPa | 0 mm | - | 74 W/m² | - |
| 1778065454 | 13.89° C | 94% | 1013.9 hPa | 0 mm | - | 69 W/m² | - |
| 1778065151 | 13.33° C | 94% | 1013.9 hPa | 0 mm | - | 64 W/m² | - |
| 1778064847 | 13.33° C | 95% | 1013.9 hPa | 0 mm | - | 59 W/m² | - |
| 1778064545 | 13.33° C | 95% | 1013.8 hPa | 0 mm | - | 48 W/m² | - |
| 1778064243 | 13.33° C | 95% | 1013.6 hPa | 0 mm | - | 36 W/m² | - |
| 1778063940 | 13.33° C | 95% | 1013.8 hPa | 0 mm | - | 26 W/m² | - |
| 1778063637 | 13.33° C | 95% | 1013.9 hPa | 0 mm | - | 25 W/m² | - |
| 1778063334 | 13.33° C | 95% | 1013.7 hPa | 0 mm | - | 25 W/m² | - |
| 1778063033 | 13.33° C | 95% | 1013.7 hPa | 0 mm | - | 23 W/m² | - |
| 1778062729 | 13.33° C | 95% | 1013.7 hPa | 0 mm | - | 23 W/m² | - |
| 1778062425 | 13.33° C | 95% | 1013.8 hPa | 0 mm | - | 19 W/m² | - |
| 1778062123 | 13.33° C | 95% | 1013.4 hPa | 0 mm | - | 16 W/m² | - |
| 1778061821 | 13.33° C | 95% | 1013.8 hPa | 0 mm | - | 11 W/m² | - |
| 1778061519 | 13.33° C | 95% | 1013.7 hPa | 0 mm | - | 7 W/m² | - |
* Rain latest hour (hover to see other rain measurements)
** Current wind speed in m/s (hover to see current wind gust speed)